Location: Baltimore
(39.2903°N, 76.6125°W)
Time: 00:55:46
(UTC-04:00)

ISS - Pass Details

Date: 29 December 2012
Orbit: 401 x 404 km, 51.6° (Epoch: 23 July)

Event Time Altitude Azimuth Distance (km) Brightness Sun altitude
Rises 17:59:08 0° 314° (NW) 2,365 0.9 -12.6°
Reaches altitude 10° 18:01:24 10° 326° (NW) 1,499 -0.3 -13.0°
Maximum altitude 18:04:24 29° 29° (NNE) 789 -2.3 -13.6°
Enters shadow 18:05:15 26° 57° (ENE) 866 -2.3 -13.7°
